Location: *
(51.2167°N, 10.0667°E)
Time: 22:33:27
(UTC+00:00)

Cosmos 1703 Rocket - Pass Details

Date: 12 December 2019
Orbit: 604 x 635 km, 82.5° (Epoch: 22 January)

Event Time Altitude Azimuth Distance (km) Brightness Sun altitude
Rises 17:25:57 0° 195° (SSW) 2,917 7.4 -19.7°
Reaches altitude 10° 17:28:11 10° 198° (SSW) 2,016 6.6 -20.0°
Maximum altitude 17:32:39 70° 281° (WNW) 679 3.8 -20.7°
Enters shadow 17:36:25 15° 5° (N) 1,740 5.7 -21.3°
